Wind_Speed
10 14 16 14 7 5 5 6 5 5 6 2 3 9 6 6 14 13 15 17 13 6 11 5 6 4 5 14 7 9 9 3 2 4 6 6 4 6 7 7 7 6 7 10
15 21 6 2 2 1 2 4 7 8 2 7 8 8 4 3 2 9 11 14 13 8 6 12 9 9 9 9 11 6 10 3 2 5 6 8 5 5 7 7 5 3 1 4
18 13 6 4 4 7 12 5 6 4 7 8 12 1 9 2 7 8 8 11 16 16 13 10 10 11 9 5 7 4 7 6 4 4 5 5 6 5 6 6 6 5 1 4
17 9 7 4 5 8 11 6 9 7 8 16 14 7 14 5 10 11 11 10 14 23 29 20 13 17 20 11 3 8 4 4 3 4 4 6 5 6 7 5 4 5 4 6
16 11 14 8 4 12 15 11 10 10 10 16 12 9 7 10 14 9 10 6 14 22 21 19 11 19 17 20 5 4 8 6 4 5 5 7 5 5 5 4 2 4 6 7
19 16 8 10 7 8 10 15 13 14 16 15 9 9 9 25 17 10 12 3 1 13 3 10 7 11 18 9 8 4 7 8 9 9 8 7 6 7 6 6 7 7 7 8
15 17 13 11 16 12 11 13 16 9 1 4 12 2 9 12 16 11 13 10 3 1 7 2 15 11 24 13 14 9 10 10 10 8 10 11 11 11 11 11 9 9 11 10
16 21 23 17 14 11 13 16 12 2 3 1 17 10 8 9 11 7 16 16 11 13 2 5 7 4 16 12 13 15 15 18 15 10 8 10 13 13 14 14 13 13 13 13
8 11 13 8 16 9 13 17 13 14 17 8 6 2 8 12 13 14 17 12 12 12 8 9 8 9 3 8 13 16 17 19 17 10 10 11 11 15 18 17 15 19 15 13
14 8 10 6 7 13 16 17 16 14 3 4 7 2 17 14 3 8 9 6 4 4 10 13 14 7 11 8 9 13 22 19 14 16 10 8 10 14 17 18 19 20 17 18
12 13 8 10 10 5 12 10 11 14 6 6 4 4 3 11 19 11 2 0 3 6 11 12 12 15 9 15 17 19 17 18 19 17 14 13 10 11 15 18 19 21 22 22
7 13 14 13 11 9 8 8 6 16 4 8 10 4 8 6 5 15 1 2 2 6 13 15 24 25 17 26 23 18 18 19 17 16 17 20 20 22 19 20 20 20 21 22
3 2 10 12 4 12 11 13 14 21 17 16 4 7 13 9 18 10 12 15 14 9 9 13 18 26 28 11 8 16 19 19 19 18 18 21 19 19 20 21 18 21 21 23
13 14 11 13 10 3 3 15 19 19 18 18 10 9 8 16 21 19 16 15 12 16 18 19 19 24 27 21 16 19 23 20 20 21 21 22 21 20 22 22 20 21 21 21
11 7 9 15 11 5 11 12 14 13 18 16 12 12 9 11 9 11 12 11 6 10 15 17 19 22 24 18 20 22 25 23 20 20 19 20 22 23 23 22 21 20 22 23
7 7 11 17 13 12 12 11 14 17 21 8 12 14 9 10 6 5 8 7 6 7 13 19 22 22 16 18 19 25 25 27 21 18 20 20 20 20 20 21 22 23 24 24
6 10 14 11 16 19 11 16 14 4 9 7 11 11 3 2 0 4 8 10 16 14 14 16 15 13 15 18 17 20 23 26 31 28 24 23 23 23 23 23 22 23 21 21
9 10 7 9 12 7 7 3 4 3 4 8 10 11 8 7 5 11 15 16 16 14 16 17 20 23 26 27 22 22 27 30 34 37 38 37 36 33 29 28 28 28 28 26
5 5 6 8 12 13 14 3 6 3 3 3 6 6 7 6 5 10 12 14 15 18 21 23 24 26 25 27 29 32 36 39 43 46 44 37 36 35 37 38 36 35 35 35
5 7 4 10 5 2 6 1 5 5 2 6 11 15 19 22 20 20 18 22 25 27 30 32 34 36 38 38 39 43 44 44 41 38 38 36 35 37 39 38 38 39 43 45
3 1 2 9 12 4 4 10 5 2 1 6 9 14 17 20 22 28 32 34 36 36 36 31 29 29 30 32 33 35 37 38 39 41 41 43 45 43 39 38 40 42 41 41
5 3 5 7 4 2 8 8 3 5 12 16 19 22 24 20 21 24 28 28 27 29 32 34 37 38 39 39 39 41 42 41 41 42 44 46 46 49 47 46 40 41 42 42
7 10 7 2 1 1 7 6 6 13 18 22 21 23 23 24 26 27 30 31 35 38 41 43 43 44 42 43 45 47 48 50 52 51 53 53 48 49 53 49 45 40 38 38
7 9 9 8 7 8 9 12 18 21 23 25 21 20 23 27 30 35 36 37 39 40 45 48 50 49 46 46 49 50 52 52 52 51 46 43 43 41 39 38 37 37 35 35
4 6 8 8 12 13 15 20 22 21 26 23 22 22 29 33 33 31 32 35 35 35 34 31 34 41 45 42 39 35 36 39 40 41 41 39 39 39 38 33 33 36 33 34
12 10 12 13 16 16 19 20 23 24 21 20 25 30 31 29 31 31 31 29 32 34 32 30 29 29 29 27 30 31 34 35 36 36 38 40 36 37 39 37 36 36 34 31
Wind_Direction
221 245 263 300 194 317 38 327 340 265 136 341 343 280 283 207 231 231 215 223 238 274 327 281 249 302 299 268 327 9 7 0 301 345 339 327 315 311 317 308 293 294 289 291
239 244 287 177 127 275 271 241 277 128 133 297 269 249 230 260 185 229 232 238 234 226 283 271 277 268 283 286 281 22 42 13 320 327 330 329 318 310 294 307 319 302 313 83
230 230 174 215 235 258 269 300 33 337 319 277 272 25 156 138 207 212 226 270 232 235 221 255 243 282 267 278 278 286 40 8 16 330 317 297 305 294 284 294 314 308 318 199
248 271 250 164 229 265 290 11 346 321 303 293 301 163 141 181 208 197 220 204 238 222 192 179 232 235 225 267 247 244 283 26 6 21 337 311 322 315 312 302 302 315 286 252
231 241 252 271 228 251 289 311 298 298 281 288 302 120 145 219 215 227 216 151 224 175 255 251 323 243 223 228 268 261 262 278 318 331 5 1 346 316 316 316 314 284 288 274
256 269 250 247 262 255 276 297 275 278 269 276 5 97 235 254 231 134 137 96 352 16 201 257 343 216 212 234 236 217 270 286 276 296 326 342 343 336 342 320 336 335 322 295
235 238 226 255 241 246 261 275 278 297 338 210 304 139 264 213 177 136 114 99 188 70 56 281 316 125 195 221 229 282 279 289 270 282 302 317 322 324 328 327 329 316 313 305
232 244 231 223 236 228 255 280 282 212 174 202 2 95 242 136 139 165 130 145 192 191 81 88 39 197 226 204 247 271 277 276 270 276 292 304 313 312 310 308 312 301 291 284
297 335 175 221 229 234 260 267 271 285 280 106 58 15 293 253 225 198 157 212 229 261 278 253 227 142 268 242 246 255 261 255 266 276 277 295 313 311 304 298 293 310 303 292
270 296 175 214 212 251 251 267 304 318 89 32 36 259 321 140 20 295 206 216 270 282 256 303 245 257 256 279 272 274 284 231 299 274 281 276 298 305 300 297 290 285 288 277
257 284 281 193 245 275 239 254 276 292 342 134 154 254 207 229 205 339 23 332 203 250 276 293 302 303 272 245 256 272 268 286 284 269 275 279 282 295 304 295 288 284 284 280
255 267 306 299 290 218 305 35 343 313 305 310 127 180 177 131 172 214 85 180 283 310 315 327 320 326 297 276 231 248 248 266 279 285 299 298 296 296 299 291 289 281 283 279
321 281 314 305 317 333 319 333 351 336 326 310 123 166 147 236 217 204 231 236 253 283 279 282 293 306 301 328 302 251 271 281 277 281 285 283 286 289 289 289 292 285 283 284
233 244 313 316 2 68 241 297 281 311 331 345 25 153 174 172 195 213 224 242 262 290 297 290 282 301 302 304 299 281 285 283 285 282 281 283 283 278 283 283 281 284 284 283
231 244 286 296 332 318 313 267 279 296 305 295 351 111 143 173 202 218 229 218 217 274 298 304 310 314 310 303 284 274 280 281 286 288 287 283 279 278 274 278 275 273 276 276
221 248 300 299 308 3 350 301 287 297 292 223 77 82 36 46 36 337 311 280 274 264 268 285 298 304 309 319 314 309 302 292 289 290 293 285 278 276 274 276 275 277 276 280
291 315 319 327 312 328 340 321 310 283 41 48 45 119 155 136 255 296 304 323 329 319 304 287 290 273 276 287 286 297 293 292 296 298 292 286 283 282 280 277 274 276 277 279
274 294 317 322 322 326 314 347 71 143 100 103 77 59 37 12 317 274 286 295 284 269 267 265 266 267 273 275 264 263 266 272 279 283 287 285 279 276 275 274 273 272 273 270
215 296 332 291 298 289 287 28 112 49 71 132 198 241 261 232 246 290 292 282 267 263 258 262 270 272 270 268 265 262 262 265 271 281 287 289 288 279 271 268 267 265 267 268
279 297 328 267 306 297 92 22 192 195 97 312 269 264 268 273 274 266 264 272 277 276 277 277 277 279 278 276 276 278 280 282 282 282 285 286 285 284 283 279 273 267 262 263
316 229 277 289 267 178 210 236 266 243 270 245 264 276 286 294 291 288 287 286 285 285 288 292 291 290 289 291 291 290 289 288 288 288 291 292 290 286 283 279 279 277 270 265
287 259 298 301 349 37 305 300 238 206 248 271 287 297 297 295 292 287 289 295 295 293 290 289 287 287 287 286 284 285 287 288 287 287 289 291 291 290 286 283 278 276 272 272
232 243 252 316 309 36 318 312 246 266 285 305 313 309 294 292 295 297 298 295 291 290 288 285 284 282 279 280 281 281 280 280 279 279 280 278 281 274 278 282 281 273 266 269
225 225 201 194 178 226 252 269 286 299 307 309 301 298 302 299 296 299 306 302 299 298 293 287 286 283 280 278 277 279 281 280 282 281 285 278 276 278 274 276 276 274 268 268
285 231 242 218 237 255 269 279 289 296 299 296 304 310 300 304 314 319 315 317 315 317 318 313 303 297 292 288 283 287 292 285 281 282 285 282 280 279 278 273 273 274 271 271
251 225 209 227 243 247 262 274 286 292 300 317 310 303 312 326 322 315 322 321 320 323 319 318 324 329 327 305 293 295 293 294 292 289 286 281 278 276 276 271 265 266 269 267
Height
3174 3176 3173 3173 3174 3174 3173 3174 3174 3175 3177 3177 3178 3178 3177 3180 3178 3178 3178 3178 3180 3184 3185 3186 3188 3190 3189 3188 3188 3188 3187 3186 3186 3187 3186 3185 3185 3183 3183 3184 3184 3184 3183 3182
3175 3172 3172 3174 3174 3174 3174 3173 3174 3174 3175 3176 3176 3176 3177 3178 3180 3179 3179 3178 3179 3180 3183 3184 3187 3189 3189 3189 3190 3188 3187 3187 3186 3185 3185 3183 3183 3183 3182 3184 3185 3183 3182 3181
3171 3169 3173 3173 3174 3174 3174 3175 3173 3174 3173 3174 3174 3177 3175 3176 3176 3178 3179 3177 3176 3173 3174 3179 3186 3186 3185 3186 3187 3188 3187 3186 3185 3183 3183 3183 3183 3183 3183 3183 3183 3182 3181 3183
3170 3170 3172 3172 3173 3173 3173 3173 3171 3172 3172 3170 3169 3175 3173 3175 3174 3173 3175 3174 3174 3174 3168 3175 3185 3185 3183 3183 3185 3186 3186 3185 3186 3183 3183 3181 3182 3182 3181 3181 3181 3181 3181 3183
3168 3169 3170 3171 3170 3171 3171 3170 3170 3170 3169 3168 3166 3172 3172 3173 3171 3173 3173 3174 3176 3162 3171 3169 3181 3187 3189 3185 3184 3185 3186 3186 3185 3184 3184 3183 3181 3181 3180 3179 3180 3182 3183 3182
3166 3167 3167 3168 3169 3170 3169 3169 3168 3167 3167 3168 3170 3168 3169 3169 3169 3169 3170 3174 3173 3167 3167 3179 3177 3178 3182 3183 3181 3182 3185 3186 3186 3184 3183 3182 3181 3180 3179 3180 3180 3180 3181 3181
3164 3163 3165 3166 3167 3167 3167 3167 3166 3166 3168 3168 3166 3169 3169 3167 3168 3171 3172 3176 3172 3174 3175 3178 3176 3164 3175 3178 3178 3181 3184 3185 3184 3184 3182 3181 3180 3178 3177 3177 3176 3176 3177 3177
3163 3162 3161 3163 3164 3165 3165 3166 3166 3166 3167 3163 3163 3171 3173 3171 3171 3171 3171 3172 3171 3174 3178 3175 3168 3173 3180 3177 3184 3182 3181 3179 3180 3181 3181 3180 3178 3178 3175 3174 3173 3173 3173 3173
3160 3155 3154 3160 3161 3164 3162 3162 3162 3160 3157 3162 3172 3177 3176 3173 3166 3166 3169 3168 3169 3173 3175 3181 3177 3171 3170 3178 3179 3177 3172 3164 3169 3175 3177 3178 3177 3174 3174 3172 3171 3170 3171 3170
3159 3161 3159 3159 3161 3161 3161 3162 3162 3159 3160 3178 3174 3178 3177 3176 3165 3151 3170 3169 3169 3171 3173 3173 3173 3175 3174 3174 3173 3170 3162 3134 3148 3167 3173 3174 3174 3172 3169 3168 3167 3167 3168 3167
3157 3159 3160 3158 3158 3158 3160 3159 3161 3160 3159 3163 3175 3171 3168 3168 3168 3170 3168 3169 3170 3170 3169 3171 3171 3168 3168 3170 3170 3168 3166 3163 3163 3165 3167 3168 3169 3169 3166 3164 3163 3163 3162 3160
3156 3156 3156 3159 3157 3156 3157 3158 3157 3159 3158 3157 3158 3166 3163 3170 3166 3173 3167 3168 3168 3166 3163 3160 3159 3163 3165 3162 3155 3163 3165 3164 3165 3162 3162 3162 3163 3162 3161 3160 3160 3158 3158 3156
3155 3157 3157 3155 3157 3155 3155 3157 3158 3157 3155 3156 3155 3164 3162 3164 3166 3167 3167 3168 3166 3163 3162 3160 3158 3157 3156 3157 3160 3163 3162 3162 3162 3159 3158 3157 3158 3157 3156 3156 3154 3152 3152 3149
3155 3156 3158 3159 3158 3159 3158 3157 3155 3161 3161 3158 3158 3157 3160 3161 3163 3163 3164 3165 3162 3158 3156 3156 3157 3157 3154 3155 3157 3158 3156 3156 3155 3153 3153 3151 3151 3152 3152 3150 3149 3146 3146 3145
3152 3154 3156 3156 3158 3157 3160 3160 3160 3160 3160 3158 3158 3161 3159 3159 3160 3160 3160 3161 3162 3158 3154 3150 3148 3148 3147 3149 3150 3152 3150 3149 3148 3147 3147 3146 3145 3145 3145 3144 3143 3142 3140 3140
3151 3154 3155 3154 3156 3155 3156 3159 3159 3157 3158 3160 3156 3158 3158 3156 3155 3156 3156 3159 3161 3159 3156 3151 3149 3148 3145 3144 3144 3143 3141 3141 3144 3143 3142 3141 3140 3140 3138 3138 3137 3136 3136 3135
3151 3151 3152 3153 3153 3153 3155 3156 3156 3156 3152 3155 3155 3159 3158 3155 3154 3154 3154 3153 3153 3153 3153 3150 3148 3147 3145 3143 3141 3138 3136 3133 3133 3137 3137 3136 3134 3133 3131 3131 3130 3130 3130 3129
3149 3149 3151 3152 3153 3155 3154 3151 3151 3149 3152 3156 3156 3156 3154 3153 3153 3151 3150 3150 3149 3147 3145 3144 3143 3141 3140 3138 3137 3135 3133 3130 3127 3125 3125 3126 3125 3124 3123 3122 3122 3122 3122 3122
3145 3147 3149 3151 3152 3153 3150 3149 3150 3149 3152 3153 3152 3151 3150 3150 3149 3147 3147 3145 3143 3141 3139 3136 3134 3132 3130 3129 3128 3126 3124 3122 3119 3116 3113 3111 3109 3109 3110 3110 3111 3113 3112 3112
3143 3146 3149 3149 3150 3150 3151 3149 3150 3150 3150 3150 3149 3148 3147 3146 3146 3144 3142 3139 3137 3135 3132 3129 3126 3123 3120 3118 3116 3113 3111 3108 3105 3104 3101 3100 3099 3097 3096 3096 3097 3098 3099 3099
3143 3144 3146 3147 3147 3146 3146 3145 3147 3148 3154 3147 3145 3144 3143 3142 3141 3137 3134 3132 3129 3125 3122 3118 3115 3112 3110 3108 3105 3102 3100 3098 3095 3093 3091 3089 3087 3085 3085 3084 3083 3083 3084 3085
3142 3143 3144 3145 3144 3145 3143 3144 3146 3147 3144 3143 3142 3140 3137 3135 3132 3128 3124 3122 3119 3116 3113 3111 3106 3103 3101 3099 3096 3093 3090 3088 3086 3084 3081 3079 3076 3073 3071 3071 3071 3070 3070 3070
3140 3142 3143 3146 3145 3143 3140 3140 3142 3141 3141 3140 3137 3134 3130 3128 3125 3122 3119 3116 3113 3109 3104 3100 3096 3092 3090 3088 3084 3080 3079 3077 3074 3071 3069 3067 3064 3062 3059 3056 3057 3056 3057 3058
3137 3139 3140 3142 3144 3140 3138 3137 3137 3138 3137 3135 3131 3128 3126 3122 3119 3115 3112 3107 3102 3096 3090 3084 3080 3075 3073 3072 3070 3067 3064 3061 3057 3054 3051 3049 3046 3045 3045 3044 3044 3043 3044 3046
3136 3137 3137 3138 3139 3137 3136 3135 3135 3134 3131 3128 3127 3125 3118 3115 3112 3107 3102 3097 3092 3085 3079 3073 3068 3063 3056 3055 3055 3054 3050 3046 3041 3038 3036 3035 3034 3032 3031 3032 3033 3033 3034 3035
3132 3133 3134 3133 3134 3134 3133 3132 3131 3128 3127 3125 3121 3115 3113 3109 3105 3099 3095 3090 3084 3076 3071 3066 3061 3054 3047 3043 3042 3042 3038 3033 3029 3025 3024 3021 3020 3019 3018 3018 3020 3022 3023 3025